Home > Weather > Schwäbisch Hall > Past weeks

Flag for Germany Past Weather in Schwäbisch Hall, Baden-Württemberg, Germany — Yesterday and Last 2 Weeks

Now
55 °F

Passing clouds.


Feels Like: 54 °F
Forecast: 55 / 75 °F
Wind: 6 mph from West

Location: Niederstetten

Current Time: Jun 27, 2016 at 7:57:03 AM

Latest Report: Jun 27, 2016 at 7:20 AM


Visibility: N/A

Pressure: 30.15 "Hg

Humidity: 77%

Dew Point: 48 °F

Location of Schwäbisch HallLocation

Past Weather in Schwäbisch Hall — Graph

°F

Schwäbisch Hall Temperature Yesterday

Maximum temperature yesterday: 68 °F (at 4:20 PM)
Minimum temperature yesterday: 52 °F (at 5:58 AM)
Average temperature yesterday: 60 °F

High & Low Weather Summary for the Past Weeks

 TemperatureHumidityPressure
High88 °F (Jun 23, 5:00 PM)100% (Jun 12, 7:20 AM)30.27 "Hg (Jun 12, 7:20 AM)
Low46 °F (Jun 20, 3:20 AM)40% (Jun 24, 5:20 PM)29.56 "Hg (Jun 14, 2:20 PM)
Average61 °F79%29.95 "Hg
* Reported Jun 12 6:20 AM — Jun 27 6:20 AM, Schwäbisch Hall, Weather by CustomWeather, © 2016

Note: Actual official high and low records may vary slightly from our data, if they occured in-between our weather recording intervals... More about our weather records

Advertising

Schwäbisch Hall Weather History for the Previous 24 Hours

Scroll right to see more
 ConditionsComfort  
Time TempWeatherWind HumidityBarometerVisibility
6:20 AM
Mon, Jun 27
54 °FPassing clouds.7 mph82%30.15 "HgN/A
5:20 AM54 °FPassing clouds.5 mph82%30.15 "HgN/A
4:20 AM54 °FPassing clouds.6 mph88%30.12 "HgN/A
3:20 AM55 °FPassing clouds.3 mph77%30.12 "HgN/A
2:20 AM57 °FPassing clouds.2 mph77%30.12 "HgN/A
1:20 AM59 °FPassing clouds.2 mph72%30.12 "HgN/A
12:20 AM59 °FPassing clouds.5 mph72%30.12 "HgN/A
11:20 PM
Sun, Jun 26
59 °FPassing clouds.6 mph72%30.12 "HgN/A
10:20 PM59 °FPassing clouds.5 mph68%30.09 "HgN/A
9:20 PM61 °FScattered clouds.3 mph68%30.09 "HgN/A
8:20 PM64 °FScattered clouds.6 mph56%30.09 "HgN/A
7:20 PM66 °FScattered clouds.8 mph49%30.09 "HgN/A
6:20 PM66 °FScattered clouds.7 mph49%30.09 "HgN/A
5:20 PM68 °FPassing clouds.7 mph49%30.09 "HgN/A
4:20 PM68 °FScattered clouds.5 mph49%30.09 "HgN/A
3:20 PM66 °FScattered clouds.7 mph49%30.09 "HgN/A
2:20 PM66 °FScattered clouds.7 mph49%30.09 "HgN/A
1:20 PM64 °FScattered clouds.6 mph56%30.09 "HgN/A
12:20 PM63 °FScattered clouds.5 mph64%30.12 "HgN/A
11:20 AM61 °FScattered clouds.6 mph68%30.12 "HgN/A
10:20 AM61 °FScattered clouds.6 mph68%30.12 "HgN/A
9:20 AM59 °FPassing clouds.6 mph72%30.12 "HgN/A
8:20 AM57 °FPassing clouds.6 mph82%30.12 "HgN/A
7:20 AM55 °FPassing clouds.8 mph88%30.09 "HgN/A
Weather by CustomWeather, © 2016

See weather overviewHow to use our weather pages